WZZ5305 EGGW-EPKT

Flight info

Callsign WZZ5305
Flight time N/A
Altitude 35000
Route MATCH Q295 BRAIN M197 REDFA L620 TACHA DCT ZUCKA DCT GOBAX DCT LASIS T714 MOFKE
Aircraft A21N/M-SDE3FGHIRWY/LB1

Departure

Time 2026-04-27 19:58
Airport London Luton Airport (EGGW)

Arrival

Time N/A
Airport Katowice Wojciech Korfanty International Airport (EPKT)
Time Latitude Longitude Altitude Speed Heading
2026-04-27 19:58 51.76700 0.10051 4976 ft 259 kts 79°
2026-04-27 19:58 51.76932 0.12862 4967 ft 259 kts 79°
2026-04-27 19:59 51.77197 0.16100 4979 ft 258 kts 79°
2026-04-27 19:59 51.77251 0.16768 4982 ft 258 kts 79°
2026-04-27 20:00 51.77462 0.19356 4966 ft 258 kts 79°
2026-04-27 20:01 51.77697 0.22236 4985 ft 258 kts 79°
2026-04-27 20:01 51.77926 0.25062 4977 ft 258 kts 78°
2026-04-27 20:01 51.78157 0.27898 5130 ft 265 kts 79°
2026-04-27 20:01 51.78375 0.30595 5820 ft 266 kts 78°
2026-04-27 20:02 51.78585 0.33239 6547 ft 267 kts 78°
2026-04-27 20:02 51.78719 0.34895 6942 ft 269 kts 78°
2026-04-27 20:02 51.78960 0.37883 7608 ft 274 kts 78°
2026-04-27 20:02 51.79201 0.40878 8260 ft 279 kts 78°
2026-04-27 20:03 51.79431 0.43767 8883 ft 283 kts 79°
2026-04-27 20:03 51.79678 0.46870 9505 ft 287 kts 79°
2026-04-27 20:03 51.79924 0.49988 10124 ft 291 kts 79°
2026-04-27 20:03 51.80076 0.51926 10518 ft 293 kts 79°
2026-04-27 20:04 51.80321 0.55040 10905 ft 306 kts 79°
2026-04-27 20:04 51.80586 0.58394 11166 ft 320 kts 79°
2026-04-27 20:04 51.80864 0.61945 11576 ft 330 kts 79°
2026-04-27 20:04 51.81215 0.65594 12191 ft 333 kts 76°
2026-04-27 20:05 51.81701 0.69094 12779 ft 335 kts 74°
2026-04-27 20:05 51.82239 0.72586 13327 ft 339 kts 73°
2026-04-27 20:05 51.83285 0.79291 14326 ft 346 kts 74°
2026-04-27 20:06 51.83891 0.82966 14848 ft 349 kts 72°
2026-04-27 20:06 51.84524 0.86470 15392 ft 351 kts 71°
2026-04-27 20:06 51.85147 0.89867 15877 ft 354 kts 71°
2026-04-27 20:06 51.85397 0.91231 16066 ft 355 kts 71°